User: anonymous   Login
Location: Vancouver
(49.2500°N, 123.1330°W)
Time: 12:51:46
(UTC-07:00)
Language:

Cosmos 1408 Rocket - Orbit

View from above orbital plane
View from above orbital plane
View from above satellite
View from above satellite

Ground track
Ground track

The orbit data is extracted from the following two-line orbital elements,

1 13553U 82092B   18174.22472841  .00000066  00000-0  50609-5 0  9996
2 13553  82.5694 248.3734 0019851 257.7768 124.2160 14.84170201932075
Epoch (UTC): 23 June 2018 05:23:36
Eccentricity: 0.0019851
inclination: 82.5694°
perigee height: 602 km
apogee height: 630 km
right ascension of ascending node: 248.3734°
argument of perigee: 257.7768°
revolutions per day: 14.84170201
mean anomaly at epoch: 124.2160°
orbit number at epoch: 93207

The dashed part of the orbit path shows where the satellite is in the earth's shadow,  

DLR